[[{"header":{"parameterUnit":"m.s-1","parameterCategory":2,"la1":30.2992,"la2":30.254,"lo1":-89.0895,"lo2":-89.0443,"dy":0.0025,"dx":0.0025,"nx":19,"ny":19,"refTime":"2026-05-23T21:00:00:Z","depth":"0","parameterNumber":2,"parameterNumberName":"U-component_of_CURRENTS"},"data":[0,0,0,0.2406,0.2407,0.2435,0.2434,0.2378,0.2377,0,0,0,0,0,0,0,0,0,0,0,0.2385,0.2386,0.2405,0.2407,0.2435,0.2434,0.2378,0.2377,0,0,0,0,0,0,0,0,0,0,0,0.2385,0.2385,0.2386,0.2407,0.2435,0.2434,0.2378,0.2376,0,0,0,0,0,0,0,0,0,0,0.2358,0.2356,0.2385,0.2386,0.2407,0.2435,0.2434,0.2376,0.2376,0.2345,0,0.2358,0,0.2378,0.2373,0.2373,0,0,0,0.2388,0.2357,0.2373,0.2386,0.2408,0.2435,0.2417,0.2376,0.2376,0.2344,0.2358,0.2357,0.2377,0.2373,0.2373,0.2435,0.2436,0,0,0.2386,0.2377,0.2374,0.2373,0.2425,0.2416,0.2418,0.2377,0.2373,0.2358,0.2356,0.2376,0.2372,0.2372,0.2434,0.2435,0,0,0,0.2395,0.2376,0.2394,0.2374,0.2393,0.2417,0.2419,0.2374,0.2383,0.2356,0.2375,0.2372,0.2371,0.2433,0.2434,0.2492,0,0,0,0.2393,0.2383,0.2394,0.2387,0.2395,0.2397,0.2417,0.2386,0.2383,0.2375,0.2372,0.2371,0.2431,0.2434,0.2488,0.252,0,0,0,0.2382,0.2381,0.239,0.2386,0.241,0.2399,0.2405,0.2386,0.2395,0.2373,0.2371,0.2431,0.2433,0.2484,0.2514,0.2566,0,0,0,0.2363,0.2381,0.2389,0.2417,0.241,0.2455,0.2405,0.2427,0.2417,0.2372,0.2432,0.2434,0.2483,0.251,0.2562,0.2602,0.2624,0,0,0.2377,0.2382,0.2401,0.241,0.2452,0.2449,0.2496,0.2462,0.2448,0.2431,0.2433,0.249,0.2513,0.2565,0.276,0.2777,0,0,0,0.24,0.2407,0.2423,0.245,0.2485,0.2516,0.2505,0.2522,0.2542,0.246,0.2529,0.2544,0.2573,0.2591,0.2605,0.2722,0.2447,0.2447,0.2446,0.2367,0.2403,0.2426,0.2469,0.2509,0.2564,0.2605,0.2629,0.259,0.2639,0.262,0.274,0.2762,0.2773,0.2894,0.265,0.265,0.265,0.265,0.2352,0.2355,0.2416,0.2449,0.2512,0.2559,0.2668,0.2691,0.2777,0.273,0.2756,0.2688,0.2791,0.2915,0.2655,0.2654,0.2653,0.2653,0.2653,0.2293,0.2302,0.2332,0.2385,0.246,0.255,0.2649,0.2745,0.2824,0.2879,0.2885,0.2884,0.2965,0.2882,0.2883,0.2883,0.2883,0.2884,0.2884,0.2208,0.2245,0.2251,0.2323,0.2359,0.2458,0.2642,0.2738,0.2902,0.2972,0.2972,0.3048,0.2811,0.2771,0.289,0.2889,0.2888,0.2888,0.2887,0.2126,0.2152,0.2156,0.2179,0.2268,0.2335,0.2526,0.277,0.2909,0.3002,0.3235,0.3024,0.3009,0.2998,0.2963,0.3125,0.3125,0.3125,0.3125,0.2063,0.2079,0.2071,0.2085,0.2144,0.2272,0.241,0.2672,0.3092,0.3315,0.3401,0.3375,0.3359,0.3362,0.3343,0.3314,0.3562,0.3563,0.3564,0.2006,0.2022,0.1984,0.2014,0.2077,0.2195,0.2308,0.2578,0.3243,0.3592,0.3566,0.3548,0.3514,0.3481,0.3481,0.3444,0.3393,0,0]},{"header":{"parameterUnit":"m.s-1","parameterCategory":2,"la1":30.2992,"la2":30.254,"lo1":-89.0895,"lo2":-89.0443,"dy":0.0025,"dx":0.0025,"nx":19,"ny":19,"refTime":"2026-05-23T21:00:00:Z","depth":"0","parameterNumber":3,"parameterNumberName":"V-component_of_CURRENTS"},"data":[0,0,0,0.0706,0.0705,0.0686,0.0686,0.0741,0.0742,0,0,0,0,0,0,0,0,0,0,0,0.0727,0.0727,0.0706,0.0705,0.0686,0.0686,0.0741,0.0742,0,0,0,0,0,0,0,0,0,0,0,0.0728,0.0727,0.0727,0.0705,0.0686,0.0686,0.0741,0.0739,0,0,0,0,0,0,0,0,0,0,0.0749,0.0749,0.0727,0.0727,0.0705,0.0686,0.0686,0.0738,0.0739,0.0768,0,0.0763,0,0.0742,0.0746,0.0746,0,0,0,0.072,0.0748,0.0741,0.0727,0.0704,0.0686,0.0699,0.0738,0.074,0.0769,0.0763,0.0764,0.0743,0.0746,0.0747,0.0778,0.0778,0,0,0.0721,0.0729,0.074,0.0742,0.0699,0.0699,0.0698,0.0738,0.0743,0.0764,0.0765,0.0744,0.0747,0.0747,0.0778,0.0778,0,0,0,0.0714,0.073,0.072,0.074,0.0724,0.0699,0.0697,0.0741,0.0737,0.0765,0.0745,0.0747,0.0748,0.0778,0.0778,0.0817,0,0,0,0.0715,0.0724,0.072,0.0726,0.0723,0.072,0.0699,0.0735,0.0738,0.0744,0.0747,0.0748,0.0779,0.0778,0.0817,0.0891,0,0,0,0.0728,0.0725,0.0722,0.0726,0.0708,0.0718,0.0717,0.0735,0.0725,0.0746,0.0748,0.0779,0.0778,0.0816,0.0887,0.0925,0,0,0,0.0738,0.0763,0.0723,0.0744,0.0708,0.0715,0.0716,0.072,0.0737,0.0747,0.0779,0.0778,0.0816,0.0885,0.0923,0.0955,0.0968,0,0,0.0783,0.0769,0.0782,0.0745,0.0768,0.0719,0.0743,0.0756,0.0743,0.0774,0.0774,0.0817,0.0887,0.0925,0.0939,0.0954,0,0,0,0.0805,0.0813,0.0812,0.081,0.0795,0.0795,0.0773,0.0763,0.0772,0.0747,0.08,0.0844,0.0867,0.088,0.089,0.0817,0.0777,0.0777,0.0777,0.0852,0.0851,0.0872,0.0867,0.0874,0.0845,0.085,0.0832,0.08,0.0794,0.0861,0.0906,0.0916,0.0926,0.0848,0.0814,0.0814,0.0814,0.0814,0.0881,0.0882,0.0901,0.0921,0.0925,0.0939,0.0939,0.0912,0.0934,0.0883,0.09,0.0903,0.094,0.0853,0.0816,0.0816,0.0816,0.0815,0.0815,0.0859,0.0871,0.0882,0.0925,0.0976,0.099,0.1056,0.1044,0.101,0.1033,0.1034,0.1033,0.0973,0.1023,0.1024,0.1024,0.1025,0.1025,0.1025,0.0824,0.0848,0.088,0.0933,0.0981,0.1057,0.1127,0.1159,0.1166,0.1124,0.1123,0.098,0.097,0.0981,0.1033,0.1031,0.103,0.103,0.1029,0.0814,0.0826,0.0874,0.0919,0.1037,0.1144,0.1206,0.1284,0.1295,0.1298,0.1123,0.1157,0.1162,0.1152,0.1167,0.1264,0.1264,0.1264,0.1264,0.0809,0.0818,0.089,0.0968,0.1078,0.119,0.1335,0.1415,0.1331,0.1262,0.1176,0.11,0.1094,0.1089,0.1081,0.1091,0.1167,0.1167,0.1166,0.0823,0.0843,0.0894,0.0969,0.1104,0.125,0.1417,0.1587,0.1401,0.1152,0.107,0.1074,0.0946,0.0943,0.0918,0.0912,0.0923,0,0]}],[{"header":{"parameterUnit":"m.s-1","parameterCategory":2,"la1":30.2992,"la2":30.254,"lo1":-89.0895,"lo2":-89.0443,"dy":0.0025,"dx":0.0025,"nx":19,"ny":19,"refTime":"2026-05-23T21:00:00:Z","depth":"2","parameterNumber":2,"parameterNumberName":"U-component_of_CURRENTS"},"data":[0,0,0,0.0408,0.0411,0.0632,0.0633,0.0961,0.0963,0,0,0,0,0,0,0,0,0,0,0,0.0344,0.0345,0.0407,0.0412,0.0632,0.0633,0.096,0.0963,0,0,0,0,0,0,0,0,0,0,0,0.0343,0.0345,0.0346,0.0412,0.0631,0.0633,0.0959,0.0789,0,0,0,0,0,0,0,0,0,0,0.0573,0.0497,0.0344,0.0346,0.0413,0.0631,0.0633,0.0781,0.08,0.0864,0,0.089,0,0.0917,0.0983,0.0984,0,0,0,0.0444,0.0481,0.0532,0.0346,0.0415,0.0631,0.0541,0.0792,0.0813,0.0889,0.0894,0.0906,0.0922,0.0985,0.0987,0.1039,0.1037,0,0,0.0431,0.04,0.0517,0.0545,0.0464,0.0534,0.0548,0.0804,0.0829,0.0895,0.0914,0.0928,0.0987,0.0989,0.1041,0.1039,0,0,0,0.0375,0.0391,0.0436,0.0532,0.0559,0.054,0.0556,0.0819,0.0831,0.0917,0.0932,0.0989,0.0992,0.1042,0.104,0.0987,0,0,0,0.0369,0.0356,0.043,0.0416,0.0553,0.0684,0.0564,0.0814,0.0843,0.093,0.0989,0.0995,0.1044,0.1041,0.0993,0.0993,0,0,0,0.0335,0.0352,0.0373,0.0413,0.0492,0.068,0.071,0.0821,0.085,0.0984,0.0996,0.1046,0.1042,0.0997,0.0999,0.1036,0,0,0,0.0303,0.0311,0.0372,0.0386,0.0489,0.0537,0.0708,0.08,0.0899,0.099,0.1044,0.104,0.0999,0.1003,0.1039,0.1259,0.1264,0,0,0.0283,0.0309,0.0311,0.0369,0.0398,0.0509,0.0535,0.0758,0.0855,0.0974,0.0976,0.0991,0.1,0.1037,0.1029,0.1043,0,0,0,0.0282,0.0299,0.0311,0.0357,0.0399,0.0472,0.0624,0.067,0.0803,0.089,0.0924,0.0931,0.0958,0.1092,0.11,0.1021,0.1022,0.1022,0.1023,0.0254,0.0276,0.0288,0.033,0.0361,0.0452,0.0506,0.0595,0.0704,0.0711,0.0838,0.076,0.0895,0.0906,0.0767,0.0767,0.0767,0.0766,0.0766,0.0231,0.025,0.0282,0.031,0.0362,0.0402,0.0467,0.0536,0.0628,0.0678,0.0708,0.0965,0.0914,0.0761,0.0762,0.0763,0.0763,0.0764,0.0764,0.0228,0.024,0.0268,0.0315,0.0364,0.0421,0.0497,0.055,0.0612,0.064,0.0878,0.0883,0.0813,0.07,0.07,0.07,0.07,0.07,0.07,0.0225,0.0245,0.0284,0.0324,0.0376,0.0444,0.0544,0.062,0.0778,0.0845,0.0848,0.074,0.0742,0.0808,0.0702,0.0702,0.0701,0.0701,0.0701,0.0225,0.0245,0.0304,0.035,0.0434,0.0518,0.0604,0.0856,0.0933,0.1042,0.0972,0.0965,0.1029,0.1024,0.1096,0.1071,0.1071,0.1071,0.1071,0.0224,0.0232,0.0326,0.0392,0.0465,0.0546,0.0794,0.0968,0.1102,0.1093,0.109,0.1112,0.11,0.1167,0.1158,0.1232,0.1241,0.1241,0.124,0.0206,0.025,0.0308,0.0387,0.0474,0.0606,0.0873,0.1048,0.1095,0.1228,0.0919,0.1121,0.1152,0.1133,0.1236,0.1222,0.1341,0,0]},{"header":{"parameterUnit":"m.s-1","parameterCategory":2,"la1":30.2992,"la2":30.254,"lo1":-89.0895,"lo2":-89.0443,"dy":0.0025,"dx":0.0025,"nx":19,"ny":19,"refTime":"2026-05-23T21:00:00:Z","depth":"2","parameterNumber":3,"parameterNumberName":"V-component_of_CURRENTS"},"data":[0,0,0,-0.0391,-0.0391,-0.0319,-0.0318,-0.022,-0.022,0,0,0,0,0,0,0,0,0,0,0,-0.0408,-0.0408,-0.0392,-0.0391,-0.0319,-0.0318,-0.022,-0.022,0,0,0,0,0,0,0,0,0,0,0,-0.0408,-0.0408,-0.0408,-0.0391,-0.0319,-0.0318,-0.022,-0.0269,0,0,0,0,0,0,0,0,0,0,-0.0337,-0.0351,-0.0408,-0.0408,-0.0391,-0.0319,-0.0318,-0.0271,-0.0266,-0.0261,0,-0.0264,0,-0.0258,-0.0216,-0.0216,0,0,0,-0.036,-0.0355,-0.0356,-0.0408,-0.039,-0.0319,-0.0343,-0.0268,-0.0262,-0.0255,-0.0263,-0.0259,-0.0256,-0.0215,-0.0215,-0.026,-0.0261,0,0,-0.0364,-0.037,-0.036,-0.0353,-0.039,-0.0345,-0.0341,-0.0264,-0.0254,-0.0262,-0.0257,-0.0254,-0.0215,-0.0215,-0.0259,-0.026,0,0,0,-0.0396,-0.0372,-0.0374,-0.0357,-0.0354,-0.0344,-0.0339,-0.0257,-0.0264,-0.0256,-0.0253,-0.0215,-0.0214,-0.0258,-0.0259,-0.0247,0,0,0,-0.0397,-0.0394,-0.0376,-0.0374,-0.0356,-0.0303,-0.0333,-0.0268,-0.026,-0.0254,-0.0215,-0.0213,-0.0257,-0.0259,-0.0245,-0.0208,0,0,0,-0.0408,-0.0394,-0.0396,-0.0376,-0.0362,-0.0305,-0.0304,-0.0266,-0.026,-0.0216,-0.0213,-0.0256,-0.0258,-0.0244,-0.0207,-0.021,0,0,0,-0.04,-0.0375,-0.0396,-0.0369,-0.0363,-0.033,-0.0304,-0.0266,-0.0231,-0.0214,-0.0257,-0.0259,-0.0243,-0.0206,-0.0209,-0.0074,-0.0065,0,0,-0.0359,-0.037,-0.0356,-0.0373,-0.0327,-0.0337,-0.031,-0.0259,-0.0269,-0.0274,-0.0274,-0.0246,-0.0207,-0.0209,-0.02,-0.0188,0,0,0,-0.0336,-0.0322,-0.0313,-0.0296,-0.0294,-0.0285,-0.0269,-0.0291,-0.0302,-0.0266,-0.0294,-0.027,-0.0272,-0.0191,-0.0183,-0.027,-0.0269,-0.0269,-0.0269,-0.0277,-0.0277,-0.024,-0.0242,-0.0233,-0.0253,-0.0263,-0.0303,-0.031,-0.035,-0.0298,-0.0338,-0.0256,-0.0247,-0.0358,-0.0358,-0.0358,-0.0358,-0.0358,-0.0226,-0.022,-0.0203,-0.0176,-0.0193,-0.0195,-0.0249,-0.0284,-0.0334,-0.0351,-0.0354,-0.0228,-0.0235,-0.0358,-0.0358,-0.0358,-0.0358,-0.0358,-0.0358,-0.0228,-0.0219,-0.021,-0.0179,-0.0156,-0.0174,-0.0169,-0.023,-0.0301,-0.0311,-0.0229,-0.0227,-0.0285,-0.0318,-0.0318,-0.0318,-0.0318,-0.0318,-0.0317,-0.0254,-0.0231,-0.0212,-0.018,-0.0149,-0.0126,-0.0134,-0.0146,-0.0161,-0.0192,-0.0191,-0.0324,-0.0325,-0.0285,-0.0316,-0.0316,-0.0316,-0.0316,-0.0317,-0.026,-0.0271,-0.0226,-0.0196,-0.0111,0.0011,-0.0017,0.0042,-0.0013,0.0004,-0.0133,-0.0138,-0.012,-0.0126,-0.0083,-0.0059,-0.0059,-0.0059,-0.0059,-0.0278,-0.0275,-0.0199,-0.0126,-0.004,0.0079,0.0302,0.0368,0.0243,0.0128,0.0119,0.0138,0.0124,0.0155,0.0142,0.0191,0.0285,0.0286,0.0286,-0.0273,-0.0248,-0.0176,-0.0099,0.0024,0.0205,0.0555,0.0678,0.0341,0.0295,0.0133,-0.0027,-0.0022,-0.0035,-0.0007,-0.002,0.005,0,0]}],[{"header":{"parameterUnit":"m.s-1","parameterCategory":2,"la1":30.2992,"la2":30.254,"lo1":-89.0895,"lo2":-89.0443,"dy":0.0025,"dx":0.0025,"nx":19,"ny":19,"refTime":"2026-05-23T21:00:00:Z","depth":"4","parameterNumber":2,"parameterNumberName":"U-component_of_CURRENTS"},"data":[0,0,0,0.0375,0.0375,0.0329,0.0329,0.0034,0.0031,0,0,0,0,0,0,0,0,0,0,0,0.0371,0.0371,0.0375,0.0375,0.0329,0.0329,0.0034,0.0031,0,0,0,0,0,0,0,0,0,0,0,0.0371,0.0371,0.0371,0.0376,0.0329,0.0328,0.0035,0.0118,0,0,0,0,0,0,0,0,0,0,0.0187,0.0237,0.0371,0.0371,0.0376,0.033,0.0328,0.0124,0.0112,0.0001,0,0.0016,0,0.0039,0.001,0.0009,0,0,0,0.0331,0.0247,0.0242,0.0371,0.0376,0.033,0.0338,0.0119,0.0106,-0.0015,0.0013,0.0004,0.0034,0.0008,0.0006,-0.0155,-0.0155,0,0,0.0334,0.034,0.0253,0.0236,0.0386,0.0339,0.0337,0.0113,0.0098,0.0012,-0.0002,0.0029,0.0006,0.0003,-0.0156,-0.0155,0,0,0,0.0371,0.0342,0.0347,0.0245,0.0268,0.0339,0.0336,0.0107,0.0113,-0.0004,0.0025,0.0004,0.0,-0.0156,-0.0156,-0.0065,0,0,0,0.037,0.0368,0.0349,0.0349,0.0275,0.0223,0.0335,0.0127,0.0105,0.0027,0.0004,-0.0003,-0.0157,-0.0156,-0.0069,-0.0051,0,0,0,0.0369,0.0367,0.0372,0.035,0.0354,0.0228,0.0219,0.0124,0.0123,0.0009,-0.0004,-0.0158,-0.0156,-0.0072,-0.0056,0.001,0,0,0,0.0361,0.0366,0.0372,0.0388,0.0356,0.036,0.0221,0.016,0.0073,0.0002,-0.0157,-0.0156,-0.0074,-0.0059,0.0007,-0.0009,0,0,0,0.0361,0.0366,0.0379,0.0385,0.0411,0.0362,0.0361,0.0169,0.0054,-0.0111,-0.0113,-0.0068,-0.0056,0.001,0.0073,0,0,0,0,0.0376,0.038,0.0394,0.041,0.042,0.0399,0.0285,0.0235,0.0079,0.002,-0.0065,-0.0061,-0.0022,-0.0042,-0.0149,-0.0149,-0.0149,-0.0149,-0.0149,0.0359,0.038,0.0401,0.0422,0.0426,0.0401,0.0373,0.027,0.0149,0.011,0.0016,0.0128,0.0111,0.0029,0.003,0.003,0.0031,0.0031,0.0031,0.0367,0.0374,0.04,0.0418,0.0424,0.0404,0.0371,0.0311,0.0244,0.0134,0.0168,0.0058,0.004,0.0039,0.0037,0.0036,0.0035,0.0035,0.0034,0.0354,0.0353,0.0378,0.0407,0.0398,0.0385,0.0403,0.0343,0.0284,0.0298,0.0249,0.0189,0.0178,0.0294,0.0295,0.0295,0.0295,0.0296,0.0296,0.0318,0.0346,0.037,0.0394,0.0398,0.0398,0.0401,0.0415,0.0369,0.0337,0.0292,0.0216,0.0208,0.0193,0.0302,0.0301,0.03,0.03,0.0299,0.0279,0.031,0.0351,0.0375,0.0416,0.0425,0.0464,0.0486,0.052,0.0508,0.0382,0.0377,0.034,0.0328,0.0316,0.0466,0.0466,0.0466,0,0.0248,0.0269,0.0337,0.0388,0.0427,0.044,0.0505,0.0533,0.0488,0.0452,0.0486,0.034,0.0336,0.0288,0.0278,0.0261,0,0,0,0.0226,0.0255,0.0295,0.0368,0.0408,0.0452,0.051,0.0505,0.0498,0.054,0.0472,0.0471,0.0413,0.0321,0.025,0.024,0.0212,0,0]},{"header":{"parameterUnit":"m.s-1","parameterCategory":2,"la1":30.2992,"la2":30.254,"lo1":-89.0895,"lo2":-89.0443,"dy":0.0025,"dx":0.0025,"nx":19,"ny":19,"refTime":"2026-05-23T21:00:00:Z","depth":"4","parameterNumber":3,"parameterNumberName":"V-component_of_CURRENTS"},"data":[0,0,0,-0.0238,-0.024,-0.0381,-0.0382,-0.0559,-0.056,0,0,0,0,0,0,0,0,0,0,0,-0.0209,-0.021,-0.0238,-0.0241,-0.0381,-0.0382,-0.0559,-0.056,0,0,0,0,0,0,0,0,0,0,0,-0.0208,-0.021,-0.0211,-0.0241,-0.0381,-0.0382,-0.0558,-0.0457,0,0,0,0,0,0,0,0,0,0,-0.0322,-0.0298,-0.0209,-0.0211,-0.0242,-0.0381,-0.0382,-0.0452,-0.0463,-0.049,0,-0.0521,0,-0.053,-0.0571,-0.0571,0,0,0,-0.0256,-0.0289,-0.0313,-0.0211,-0.0243,-0.0381,-0.0322,-0.0458,-0.0471,-0.0504,-0.0523,-0.0529,-0.0533,-0.0572,-0.0573,-0.0631,-0.0631,0,0,-0.0248,-0.0247,-0.0305,-0.0321,-0.0292,-0.0318,-0.0326,-0.0466,-0.0492,-0.0524,-0.0533,-0.0536,-0.0573,-0.0574,-0.0632,-0.0631,0,0,0,-0.0216,-0.0242,-0.0264,-0.0314,-0.0333,-0.0321,-0.0331,-0.0487,-0.0491,-0.0535,-0.0538,-0.0574,-0.0576,-0.0632,-0.0632,-0.0604,0,0,0,-0.0212,-0.0221,-0.026,-0.0263,-0.033,-0.0413,-0.0349,-0.0482,-0.0497,-0.0537,-0.0574,-0.0577,-0.0633,-0.0632,-0.0606,-0.059,0,0,0,-0.02,-0.022,-0.0237,-0.0262,-0.0312,-0.041,-0.0424,-0.0486,-0.0498,-0.0571,-0.0578,-0.0633,-0.0632,-0.0608,-0.0593,-0.0562,0,0,0,-0.0192,-0.0211,-0.0238,-0.0273,-0.0311,-0.0347,-0.0423,-0.0478,-0.0535,-0.0575,-0.0633,-0.0632,-0.0608,-0.0595,-0.0564,-0.047,0,0,0,-0.0197,-0.0213,-0.023,-0.0255,-0.0285,-0.0328,-0.0365,-0.0477,-0.0523,-0.0591,-0.0593,-0.0605,-0.0593,-0.0562,-0.0399,0,0,0,0,-0.0218,-0.0232,-0.0244,-0.0285,-0.0312,-0.035,-0.0428,-0.0455,-0.0528,-0.0549,-0.0588,-0.0581,-0.0562,-0.0513,-0.0626,-0.0626,-0.0626,-0.0626,-0.0626,-0.0211,-0.0236,-0.0262,-0.0294,-0.0324,-0.0371,-0.04,-0.0452,-0.0498,-0.051,-0.0545,-0.0485,-0.0429,-0.0533,-0.0533,-0.0532,-0.0532,-0.0532,-0.0532,-0.0199,-0.0217,-0.0268,-0.0299,-0.0342,-0.0375,-0.0411,-0.0438,-0.0456,-0.0496,-0.048,-0.0471,-0.0529,-0.053,-0.053,-0.053,-0.0531,-0.0531,-0.0531,-0.0174,-0.0188,-0.0227,-0.0279,-0.0328,-0.0368,-0.0351,-0.0396,-0.0432,-0.0423,-0.0363,-0.0457,-0.0474,-0.0413,-0.0413,-0.0412,-0.0412,-0.0412,-0.0412,-0.0134,-0.0171,-0.018,-0.0243,-0.0268,-0.0282,-0.0309,-0.0288,-0.0329,-0.0309,-0.0409,-0.0444,-0.0448,-0.0466,-0.0409,-0.0409,-0.041,-0.041,-0.041,-0.0103,-0.0114,-0.0112,-0.013,-0.0156,-0.0159,-0.019,-0.0161,-0.013,-0.0115,-0.0246,-0.0255,-0.0255,-0.0263,-0.0276,-0.0159,-0.0158,-0.0156,0,-0.0072,-0.0077,-0.0055,-0.004,-0.0023,-0.0075,0.0006,0.0009,-0.006,-0.0078,-0.0135,-0.0286,-0.0292,-0.0295,-0.03,-0.0314,0,0,0,-0.0047,-0.0038,-0.0002,0.0011,0.0024,0.0045,0.0028,0.0038,-0.007,0.0006,-0.012,-0.013,-0.0229,-0.0399,-0.042,-0.0425,-0.0454,0,0]}]]